Theta_e
334 334 334 335 336 337 340 341 339 337 338 341 342 342 341 341 343 344 343 341 339 338 339 340 339 339 342 345 347 348 351 350 348 346 344 343 342 335 329 328 336 346
334 334 334 335 336 336 337 338 338 338 337 338 340 342 340 339 341 342 343 344 342 339 338 339 339 339 340 343 345 347 348 347 345 346 345 344 342 336 328 323 327 339
333 334 334 334 335 335 335 336 338 338 339 338 339 343 344 342 342 342 344 345 344 341 340 339 339 339 339 340 342 344 345 344 343 345 346 346 344 337 329 325 324 330
333 333 333 333 333 333 334 336 337 338 340 341 340 342 345 347 346 344 343 344 345 343 341 339 338 340 341 341 341 342 343 343 342 344 346 346 345 341 332 328 329 326
333 333 332 333 333 334 335 336 336 337 339 342 343 342 343 346 348 347 345 345 345 345 345 342 338 339 342 343 343 342 340 341 341 342 345 344 343 343 335 328 330 330
333 333 333 333 333 335 335 335 335 336 338 340 343 343 342 343 346 347 347 347 346 346 347 345 340 337 339 342 344 344 341 339 340 341 343 343 342 342 339 330 326 329
334 333 333 333 334 335 336 335 335 337 338 340 343 345 345 343 343 344 346 348 347 346 346 346 342 337 336 337 341 344 343 340 338 339 340 342 341 340 339 335 327 325
334 333 334 334 334 335 336 336 337 337 337 341 346 346 346 345 343 341 342 346 348 346 345 345 343 340 337 337 337 339 342 341 337 337 338 340 342 340 338 336 331 326
334 334 334 334 335 335 336 335 336 338 338 341 345 347 347 347 346 343 341 343 346 347 346 345 344 343 341 340 337 335 337 338 336 335 336 339 340 340 339 337 334 329
336 335 334 334 335 335 335 335 335 336 338 339 341 346 349 348 348 348 345 343 344 346 346 345 344 344 343 344 341 337 334 334 334 334 335 337 338 339 339 338 335 331
336 336 335 334 335 335 334 335 335 336 339 340 339 343 348 350 349 349 348 346 343 343 345 344 343 344 344 345 345 341 337 333 333 333 334 335 337 337 338 338 336 333
336 337 337 335 334 335 335 334 336 339 343 342 339 340 346 349 349 348 347 347 343 341 342 343 342 343 345 345 345 345 342 337 333 333 334 335 337 337 338 339 338 336
336 335 337 336 335 335 338 338 337 341 345 346 344 344 345 348 349 348 345 344 343 341 340 341 341 341 344 346 345 346 346 342 337 334 334 336 338 339 339 339 339 339
339 335 335 336 336 336 339 342 343 344 346 349 350 350 350 350 351 350 348 345 344 343 340 340 341 340 343 345 344 346 348 347 342 337 335 336 338 341 341 338 338 339
346 340 337 336 337 338 338 341 345 347 347 349 352 354 354 354 353 353 354 351 348 346 344 344 344 341 341 343 344 344 345 347 345 341 338 338 339 342 344 340 339 340
354 348 343 339 338 338 338 338 341 346 348 349 352 353 355 357 356 354 355 355 353 351 350 349 347 343 339 340 341 341 340 342 343 342 341 339 339 343 345 344 343 342
359 354 350 345 340 338 338 338 339 343 346 348 351 352 353 355 357 357 355 356 356 355 353 351 348 345 341 338 337 338 337 338 339 340 341 340 339 342 344 345 346 346
361 358 355 351 346 341 339 338 338 340 343 347 349 352 353 354 356 358 356 355 356 357 356 354 350 346 342 339 337 337 337 337 338 339 341 341 339 341 342 344 347 348
363 361 358 354 351 347 343 342 340 340 342 345 347 349 352 353 354 356 356 355 355 356 358 357 354 350 346 342 340 339 338 338 339 339 340 340 340 340 341 341 343 346
364 363 360 358 356 353 350 347 344 342 342 345 347 348 349 351 352 353 354 354 353 354 356 358 358 356 353 347 343 342 341 340 340 339 339 338 340 340 339 339 339 341
365 363 362 360 359 357 355 352 348 346 346 347 350 350 348 348 349 351 352 351 352 352 353 356 358 358 357 353 348 344 344 342 341 342 341 340 340 341 340 339 338 339
364 364 362 362 361 360 359 356 353 351 349 350 351 352 352 351 351 351 352 351 351 351 351 353 354 356 357 355 352 349 348 347 345 344 344 343 342 342 342 340 340 341
363 363 363 362 362 362 360 358 357 355 353 354 353 354 355 355 354 353 353 354 354 353 352 351 351 354 356 355 354 354 353 352 349 348 347 346 345 345 344 343 342 342
362 363 363 362 362 363 362 360 359 357 357 356 355 354 354 356 357 356 355 355 355 355 354 352 350 352 354 355 356 358 358 356 354 353 352 349 348 348 347 346 346 345
361 362 362 362 362 362 362 361 359 358 358 358 358 355 355 357 360 360 359 358 358 357 357 356 355 353 353 355 356 358 360 360 359 358 356 354 353 351 349 349 350 350
361 361 362 362 363 363 363 361 359 359 359 359 359 358 357 358 360 361 363 364 363 362 361 360 359 359 357 356 357 358 360 361 361 360 359 356 356 355 354 352 352 352
Wind_Speed
38 37 36 35 34 34 33 32 31 30 29 27 26 26 26 25 24 23 22 21 21 20 21 21 19 18 17 17 16 16 17 16 14 13 13 15 14 11 15 19 18 16
39 38 37 36 36 35 34 34 33 32 31 29 28 27 26 25 25 24 23 22 22 20 20 21 21 19 18 18 18 17 18 18 16 15 15 15 16 14 15 18 18 19
40 39 39 38 37 37 36 35 34 33 32 31 30 29 27 25 25 25 25 24 24 22 21 21 21 20 20 20 20 19 19 19 18 17 17 17 17 16 16 17 17 18
42 41 40 40 39 39 37 36 35 35 34 32 32 31 28 26 25 26 26 26 27 25 23 22 21 20 21 21 22 21 20 20 20 19 19 20 19 18 17 18 18 17
43 42 42 41 41 40 39 38 37 37 36 34 33 32 31 29 27 26 26 27 28 27 26 24 22 21 21 22 23 23 23 22 22 21 22 22 22 21 19 19 20 19
44 43 43 42 42 41 40 39 39 38 37 36 34 33 32 31 30 28 27 28 28 28 28 27 26 24 23 23 24 25 25 24 24 23 23 24 25 24 22 21 22 22
45 45 44 43 43 42 41 40 40 39 38 37 35 34 33 32 32 31 30 29 29 29 29 29 28 27 26 26 26 26 26 25 25 25 25 26 26 26 25 24 23 24
46 45 45 45 44 43 43 42 41 40 39 37 35 34 34 33 33 33 32 31 30 29 29 29 29 28 28 29 28 28 27 27 27 27 27 27 28 28 27 26 24 24
47 47 46 46 46 45 45 44 42 41 40 39 37 35 34 34 34 33 33 33 32 31 31 30 30 30 30 30 30 30 30 29 29 29 30 29 29 29 29 28 27 25
48 48 47 47 47 47 46 45 44 43 42 40 39 37 35 35 34 33 33 34 34 33 33 32 32 32 32 32 32 32 32 31 30 30 31 31 31 30 30 30 29 27
49 48 48 48 48 48 47 46 45 44 43 41 40 39 36 35 35 34 34 34 34 35 35 34 34 34 34 34 34 34 34 33 32 31 32 32 32 32 31 31 31 29
50 49 49 48 48 47 47 46 45 44 42 41 41 40 37 36 35 36 35 35 36 36 36 36 36 36 36 36 36 36 35 35 34 33 33 33 34 33 33 32 32 30
49 49 49 48 48 47 45 45 45 43 41 40 40 39 38 37 36 37 37 37 37 37 37 38 37 37 37 37 37 37 36 36 35 35 34 34 34 34 34 33 33 32
47 47 48 48 47 47 45 43 42 42 40 38 37 37 38 37 36 37 37 38 38 38 38 38 38 38 38 38 38 38 37 36 36 36 35 35 35 35 35 35 34 34
45 45 46 47 46 46 46 44 42 41 40 39 38 37 37 36 36 35 36 37 38 38 38 38 39 39 39 39 39 39 39 38 37 37 37 36 36 35 36 36 36 36
43 44 44 45 46 46 46 45 44 42 40 40 40 39 38 36 35 35 35 36 37 37 38 38 39 40 41 41 41 40 40 40 40 40 39 38 37 37 37 36 36 37
43 44 44 44 45 45 45 45 45 44 42 42 41 41 40 39 36 35 36 36 37 38 39 40 41 41 41 41 42 41 41 42 42 41 41 40 40 39 39 38 37 37
43 44 44 44 44 45 45 45 44 45 44 43 43 42 42 41 39 38 38 37 37 39 40 41 42 42 41 41 41 41 42 42 42 42 42 42 41 41 41 40 39 39
43 44 44 44 44 44 44 44 44 45 45 45 44 43 43 42 42 41 40 39 40 40 41 42 42 42 42 41 40 40 41 41 42 43 43 44 44 43 43 43 42 42
43 44 44 44 44 44 44 45 45 45 45 45 44 43 44 44 44 43 42 42 42 42 42 42 42 42 42 41 40 39 39 40 41 43 44 45 45 45 45 45 46 45
43 44 43 44 44 43 44 44 45 44 45 45 44 44 45 46 46 45 45 44 44 44 44 44 44 43 43 42 41 40 39 39 40 41 44 45 46 46 46 46 47 47
43 43 43 44 44 44 44 44 44 44 44 44 45 44 44 45 46 46 46 46 45 45 45 46 46 45 45 45 44 42 41 40 40 42 44 45 46 46 47 47 47 47
43 43 44 44 44 44 45 45 44 44 43 43 44 44 43 44 46 46 46 46 46 46 47 48 47 46 47 47 47 46 44 43 43 43 44 46 47 48 47 47 48 48
43 43 43 44 44 44 44 44 44 44 43 42 43 44 44 44 43 44 45 46 47 47 48 49 49 48 48 48 47 46 45 45 45 44 44 46 48 49 49 49 49 49
42 43 43 44 44 43 43 43 43 42 42 42 42 43 43 42 40 40 42 44 45 46 47 47 48 47 48 48 48 46 45 44 44 43 45 47 48 50 51 50 50 49
41 42 42 42 42 42 41 41 40 40 40 40 40 42 41 40 38 37 37 38 39 41 42 44 44 44 45 46 46 45 44 43 43 44 47 48 48 49 50 50 50 50
Wind_Direction
220 220 220 220 219 218 217 220 226 228 226 225 226 227 228 230 233 235 235 237 236 230 227 231 233 228 221 222 223 217 220 230 233 231 230 238 253 247 221 210 194 187
220 220 221 220 220 220 220 221 225 228 229 229 229 231 234 234 232 233 234 236 239 235 229 229 233 231 226 224 225 221 222 230 233 233 237 239 246 253 234 216 204 192
220 220 220 221 222 223 223 223 224 227 230 231 230 229 232 235 232 230 230 232 238 240 236 232 232 232 230 227 227 226 225 232 234 231 238 244 244 250 239 218 209 204
220 221 222 223 225 225 224 223 224 226 227 229 230 228 226 229 232 231 228 227 232 237 239 238 234 231 231 228 227 229 228 233 237 232 234 243 246 247 241 224 213 215
222 222 223 224 225 225 225 225 225 226 227 227 230 230 226 225 227 231 230 226 227 231 234 237 236 233 233 230 227 229 230 232 236 234 232 237 245 248 244 232 217 216
223 223 223 224 224 225 225 227 228 227 228 228 229 230 229 226 224 227 230 229 226 226 227 232 236 236 235 234 230 229 229 230 233 234 233 235 241 247 247 240 225 217
223 224 224 224 224 224 225 227 229 228 229 229 228 229 230 229 227 225 227 229 229 228 226 229 235 238 238 236 233 230 229 230 233 235 235 235 238 244 247 244 234 222
224 225 225 226 225 225 225 226 228 228 229 228 227 228 230 230 231 229 227 227 229 231 230 229 233 238 239 237 235 234 232 231 232 235 237 236 236 240 245 246 242 232
224 225 225 226 226 226 227 227 229 229 229 227 226 227 228 229 231 231 229 228 228 231 233 231 232 235 237 237 237 238 237 234 233 235 237 239 238 240 242 244 245 241
222 224 226 226 227 228 229 230 231 232 231 229 228 228 228 228 230 230 231 231 229 229 232 232 232 233 234 235 237 239 240 239 238 236 237 239 241 243 243 244 245 245
222 223 225 227 228 229 231 232 233 233 233 232 231 229 228 228 230 229 230 232 231 229 230 232 232 232 232 232 233 237 240 242 241 240 238 239 241 245 246 246 247 246
223 224 225 228 229 230 231 233 233 232 232 234 234 232 228 227 229 230 230 231 233 232 231 232 233 232 232 232 232 234 238 241 242 243 241 239 240 244 246 247 249 249
224 224 224 226 229 229 228 230 232 231 229 232 235 233 230 228 228 231 232 232 234 234 233 233 233 233 232 232 232 232 234 238 241 243 243 240 239 241 244 247 249 250
222 224 223 224 227 228 226 225 227 227 226 227 229 231 230 228 226 229 232 233 233 235 236 233 232 234 233 233 232 231 232 235 239 241 241 241 240 239 241 245 248 249
220 222 223 223 224 226 225 224 223 224 224 224 224 227 228 227 225 225 227 231 232 233 235 233 232 234 235 234 233 232 231 233 236 239 239 239 240 238 239 243 246 247
218 220 221 222 223 224 226 225 223 222 222 222 222 225 227 226 223 220 223 229 231 230 232 233 233 235 237 238 237 237 236 234 234 237 238 238 239 238 238 240 242 243
218 219 220 222 223 224 226 226 224 222 221 222 222 222 225 227 225 220 220 225 230 232 234 235 236 238 240 242 242 242 241 238 237 237 238 238 239 238 237 239 240 241
217 218 219 222 223 223 225 226 225 223 221 221 221 221 222 225 226 223 220 221 226 232 236 238 241 243 245 246 246 245 244 242 240 237 237 238 239 238 238 239 239 240
216 218 220 222 223 223 223 224 225 224 222 221 221 222 221 222 225 226 224 221 223 229 234 238 241 245 248 250 249 248 248 246 243 240 238 239 240 239 239 240 240 241
215 218 220 222 223 223 222 222 223 224 223 221 221 221 221 222 224 226 227 226 224 226 231 236 239 242 247 251 252 251 249 248 247 244 242 241 241 241 240 241 242 242
215 217 219 221 222 222 221 221 223 224 223 220 219 220 223 224 225 226 228 230 229 228 229 234 238 241 244 249 252 252 251 249 248 247 245 243 242 242 243 244 244 244
214 215 218 220 221 221 221 222 223 224 223 220 218 220 222 225 226 227 228 230 232 231 230 233 236 239 243 246 250 251 251 249 249 247 246 245 243 242 243 245 245 245
215 216 217 220 220 221 222 224 224 224 224 222 219 219 221 224 226 228 229 230 232 233 233 234 235 237 240 244 247 249 248 248 248 246 245 245 245 244 244 245 246 246
216 217 218 220 222 222 224 225 226 226 225 225 223 222 224 225 227 229 230 231 233 234 236 238 238 237 239 242 244 245 246 247 248 247 246 246 245 244 243 244 245 247
216 218 219 221 223 224 225 227 228 229 228 228 229 228 227 226 228 230 232 233 234 236 238 240 241 241 242 243 244 244 244 246 247 247 248 248 247 245 243 243 244 245
217 219 220 222 223 224 226 228 229 229 230 230 231 231 229 227 227 230 231 232 234 236 238 241 243 244 245 245 246 245 245 245 246 246 248 249 248 247 245 245 244 244